{"data":{"norad_id":67964,"intl_designator":"2026-038D","name":"STARLINK-36349","alt_names":[],"object_type":"PAYLOAD","status":"ACTIVE","operator":null,"country":"US","launch_date":"2026-02-25","launch_site_code":"AFWTR","launch_vehicle":null,"mission":null,"orbit_class":"UNKNOWN","rcs_meters":null,"size_class":null,"mass_kg":null,"dimensions":null,"purposes":["comms"],"wikipedia_slug":null,"has_3d_model":false,"image_url":null,"decayed_at":null,"tle_current":{"epoch":"2026-05-25T00:30:27.042048Z","epoch_age_seconds":83474,"freshness":"FRESH","line1":"1 67964U 26038D   26145.02114632  .00019094  00000+0  59217-3 0  9997","line2":"2 67964  97.2838 154.9962 0001732  97.4543 262.6897 15.33449060 14934","mean_motion":15.3344906,"eccentricity":0.0001732,"inclination_deg":97.2838,"raan_deg":154.9962,"arg_perigee_deg":97.4543,"mean_anomaly_deg":262.6897,"bstar":0.00059217,"rev_number":1493,"period_min":93.905956028301,"perigee_km":464.34577148722,"apogee_km":466.71641811526,"semimajor_km":6843.6680948012,"source":"CELESTRAK","updated_at":"2026-05-25T13:38:21.773353Z"}}}